User: anonymous   Login
Location: Unspecified
(0.0000°N, 0.0000°E)
Time: 00:53:37
(UTC+00:00)
Language:

Picosat 4 - Orbit

View from above orbital plane
View from above orbital plane
View from above satellite
View from above satellite

Ground track
Ground track

The orbit data is extracted from the following two-line orbital elements,

1 26092U 00004K   21023.86310809  .00000109  00000-0  49708-4 0  9998
2 26092 100.1991 350.4869 0034163  23.6271 336.6473 14.43697066101678
Epoch (UTC): 23 January 2021 20:42:52
Eccentricity: 0.0034163
inclination: 100.1991°
perigee height: 722 km
apogee height: 770 km
right ascension of ascending node: 350.4869°
argument of perigee: 23.6271°
revolutions per day: 14.43697066
mean anomaly at epoch: 336.6473°
orbit number at epoch: 10167

The dashed part of the orbit path shows where the satellite is in the earth's shadow,  

DLR